STARLINK-31836, 59724

Orbit data source: Space-Track

STARLINK-31836, 59724 is a payload satellite owned by SpaceX/Seattle (US) in LEO that was launched on Fri, 10 May 2024 UTC via an FALCON 9 launch vehicle from the Air Force Western Test Range (AFWTR). Payload-class satellites include a variety of spacecraft equipped with specific instruments for various scientific and technological missions. These include communications satellites like Starlink; space stations such as the ISS; scientific satellites like the Hubble; Earth observation satellites from companies like Planet Labs, Umbra, and HawkEye 360; GPS; miniature CubeSats for education and research; and military/defense satellites.

Loading next visibility...
Identifier
59724, 2024-088S
Orbit
LEO
Country
Flag of USUS
Related business
Manufacturer
SpaceX/Seattle
Mission
Operational Commercial Communications
Bus & Motor
STARLINK V2M, Unknown motor
Mass
730 kg wet, ~700 kg dry
Launch date (UTC)
2024-05-10 (2 years ago)
Launch vehicle
FALCON 9
Launch site
Air Force Western Test Range (AFWTR)
Object type
Payload
Rocket body
Debris
Shape & HBR
Box + 2 Pan, 17.7 m
Radar Cross Section
33.884 m², Large (>1 m²)

Expand to show TLE details & history
Last TLE update: 12 hours ago

TLE from 12 hours ago
0 STARLINK-31836
1 59724U 24088S   25346.97238285 -.00008379  00000-0 -27075-3 0  9996
2 59724  53.1611 182.8259 0001888 110.4296 249.6907 15.30235147 90400
Epoch: 2025-12-12T23:20Z
TLE epoch observation values (Epoch: 2025-12-12T23:20:13.878Z)
Latitude
-0.00006°
Longitude
110.86169°
Altitude
476.459 km
Speed
7.628 km/s
True Right ascension
12h 11m 18s
True Declination
0° 00' 00"
Sunlit
Object was in daylight at epoch
Visualization orbit readout
Latitude
Unknown
Longitude
Unknown
Altitude
Unknown
Speed
Unknown
Apparent Right ascension
Unknown
Apparent Declination
Unknown
Sunlit
N/A
Visualization observer readout
Local Sidereal Time
09:36:01
Azimuth
Unknown
Elevation
Unknown
Doppler factor
Unknown
Orbital elements
Apogee altitude
476.66 km
Perigee altitude
474.072 km
Semi-major axis
6,853.503 km
Eccentricity
0.00019
Inclination
53.1611°
RAAN
182.8259°
Arg. of periapsis
110.4296°
True anomaly
249.67041°
Mean anomaly
249.6907°
Eccentric anomaly
249.68056°
Mean motion
3.82538 °/min
Orbital period
94.11 mins
BSTAR
-0.00027075
Loading maneuver chart data...
Computing Atmospheric mass density...
Loading historical data...
Loading historical data...
Loading historical data...
Loading historical data...
Loading historical data...
Loading historical data...
Loading historical data...

Documentation

Showing up to 5 results
|